#timestamp,LO_Frequency,Hit,StdDev 
1558879215.5,286046998.1,N
1558879235.4,286046998.4,N
1558879255.2,286046998.2,N
1558879275.0,286047002.8,N
1558879275.9,286047002.8,N
1558879295.8,286047002.4,N
1558879315.6,286047002.8,N
1558879335.4,286047002.6,N
1558879355.3,286047002.4,N
1558879375.1,286047001.0,N
1558879395.9,286046998.2,N
1558879415.7,286047000.8,N
1558879435.5,286046998.2,N
1558879455.4,286046998.2,N
1558879475.2,286047000.4,N
1558879495.0,286047002.8,N
1558879495.9,286047002.8,N
1558879515.8,286047000.6,N
1558879535.6,286046999.8,N
1558879555.5,286047000.1,N
1558879575.3,286047000.0,N
1558879595.1,286047001.9,N
1558879615.9,286046998.6,N
1558879635.7,286046999.6,N
1558879655.6,286046998.5,N
1558879675.4,286046998.8,N
1558879695.2,286046998.2,N
1558879715.1,286047000.5,N
1558879716.0,286047000.5,N
1558879735.8,286047000.5,N
1558879755.6,286046999.9,N
1558879775.5,286047000.2,N
1558879795.3,286047000.1,N
1558879815.2,286047002.3,N
1558879835.9,286047002.5,N
1558879855.7,286047000.2,N
1558879875.6,286047002.5,N
1558879895.4,286047002.8,N
1558879915.3,286047001.8,N
1558879935.1,286047004.4,N
1558879936.0,286047004.4,N
1558879955.8,286047003.5,N
1558879975.7,286047001.8,N
1558879995.5,286047002.0,N
1558880015.3,286047002.5,N
1558880035.2,286047000.8,N
1558880055.0,286047000.2,N
1558880055.9,286047000.2,N
1558880075.8,286047002.4,N
1558880095.6,286046999.9,N
1558880115.4,286047001.7,N
1558880135.3,286047002.1,N
1558880155.1,286047002.8,N
1558880175.8,286047002.1,N
1558880195.7,286047002.3,N
1558880215.5,286047002.8,N
1558880235.4,286047004.3,Y
1558880255.2,286047002.7,P
1558880275.0,286047002.5,P
1558880275.9,286047002.5,P
1558880295.8,286047002.1,Y
1558880315.6,286046999.3,P
1558880335.4,286046997.3,N
1558880355.3,286046995.1,N
1558880375.1,286046993.8,N
1558880395.9,286046995.5,N
1558880415.7,286046997.8,N
1558880435.5,286046996.6,N
1558880455.4,286046997.3,N
1558880475.2,286046996.6,N
1558880495.0,286046999.6,N
1558880495.9,286046999.6,N
1558880515.8,286046998.2,N
1558880535.6,286047000.5,N
1558880555.5,286047002.2,N
1558880575.3,286047002.4,N
1558880595.1,286047000.3,N
1558880615.9,286047001.0,N
1558880635.7,286047000.7,N
1558880655.5,286046999.1,N
1558880675.4,286046999.0,N
1558880695.2,286046996.8,N
1558880715.1,286046996.7,N
1558880716.0,286046996.7,N
1558880735.8,286046997.5,N
1558880755.6,286046997.6,N
1558880775.5,286046998.0,N
1558880795.3,286046997.4,N
1558880815.2,286046997.4,N
1558880835.9,286046997.9,N
1558880855.7,286046995.9,N
1558880875.6,286046996.1,N
1558880895.4,286046995.9,N
1558880915.2,286046996.3,N
1558880935.1,286046995.9,N
1558880936.0,286046995.9,N
1558880955.8,286046996.3,N
1558880975.7,286046995.5,N
1558880995.5,286046997.4,N
1558881015.3,286046995.9,N
1558881035.2,286046995.7,N
1558881055.0,286046994.2,N
1558881055.9,286046994.2,N
1558881075.8,286046993.5,Y
1558881095.6,286046995.6,P
1558881115.4,286046995.4,P
1558881135.3,286046995.0,P
1558881155.1,286046995.9,Y
1558881175.8,286046998.4,P
1558881195.7,286046998.9,N
1558881215.5,286046998.3,N
1558881235.4,286046998.5,N
1558881255.2,286047000.8,N
1558881275.0,286046998.7,N
1558881275.9,286046998.7,N
1558881295.8,286046998.3,N
1558881315.6,286046998.5,N
1558881335.5,286046999.0,N
1558881355.3,286046998.7,N
1558881375.1,286046998.9,N
1558881395.9,286046999.2,N
1558881415.7,286046999.1,N
1558881435.5,286046998.9,N
1558881455.4,286046999.5,N
1558881475.2,286046997.6,N
1558881495.1,286046996.6,Y
1558881496.0,286046996.6,P
1558881515.8,286046998.5,N
1558881535.6,286046999.4,N
1558881555.5,286046999.1,N
1558881575.3,286046999.3,N
1558881595.1,286047000.5,N
1558881615.9,286047002.4,N
1558881635.7,286047000.4,N
1558881655.6,286047000.7,N
1558881675.4,286046998.8,N
1558881695.2,286046998.1,N
1558881715.1,286046996.5,N
1558881716.0,286046996.5,N
1558881735.8,286046996.9,N
1558881755.7,286046999.6,N
1558881775.5,286046998.4,N
1558881795.3,286046999.2,N
1558881815.2,286046998.7,N
1558881835.9,286047001.1,N
1558881855.7,286047000.9,N
1558881875.6,286046998.5,N
1558881895.4,286046998.1,N
1558881915.2,286046998.6,N
1558881935.1,286047000.8,N
1558881936.0,286047000.8,N
1558881955.8,286046999.4,N
1558881975.7,286046998.7,N
1558881995.5,286047001.1,N
1558882015.4,286047000.9,N
1558882035.2,286047000.6,N
1558882055.0,286047000.6,N
1558882055.9,286047000.6,N
1558882075.8,286047001.2,N
1558882095.6,286047000.0,N
1558882115.4,286047000.9,N
1558882135.3,286047000.4,N
1558882155.1,286047001.1,N
1558882175.9,286047001.1,N
1558882195.7,286047000.3,N
1558882215.5,286046998.1,N
1558882235.4,286046998.3,N
1558882255.2,286046998.2,N
1558882275.0,286047001.0,N
1558882276.0,286047001.0,N
1558882295.8,286047000.4,N
1558882315.6,286047001.2,N
1558882335.5,286047001.0,N
1558882355.3,286047000.6,N
1558882375.1,286047001.2,N
1558882395.9,286046998.5,N
1558882415.7,286046998.2,N
1558882435.6,286047000.7,N
1558882455.4,286047000.5,N
1558882475.2,286047000.5,N
1558882495.1,286047000.4,N
1558882496.0,286047000.4,N
1558882515.8,286046998.2,N
1558882535.6,286046998.5,N
1558882555.5,286047000.8,N
1558882575.3,286046998.2,N
1558882595.2,286047000.8,N
1558882615.9,286047000.7,N
1558882635.7,286047000.1,N
1558882655.6,286046999.8,N
1558882675.4,286047000.6,N
1558882695.2,286047000.4,N
1558882715.1,286047000.3,N
1558882716.0,286047000.3,N
1558882735.8,286047000.2,N
1558882755.7,286047000.5,N
1558882775.5,286047000.3,N
1558882795.3,286047002.3,N
